Temperature
-2 -2 -2 -2 -2 -3 -3 -4 -3 -3 -3 -3 -4 -4 -4 -4 -4 -4 -4 -5 -5 -5 -5 -5 -5 -5 -4 -4 -4 -4 -4 -3 -3 -3 -2 -2 -2 -1 -1 -1 -1 -0 -0 0
-3 -2 -2 -3 -3 -3 -3 -3 -4 -3 -4 -4 -3 -3 -4 -4 -4 -5 -5 -5 -5 -5 -5 -5 -5 -5 -5 -5 -5 -4 -4 -4 -4 -3 -3 -3 -2 -2 -2 -2 -1 -1 -1 -1
-3 -2 -3 -4 -4 -4 -4 -4 -4 -4 -4 -4 -5 -4 -4 -5 -5 -5 -5 -6 -6 -6 -6 -6 -6 -6 -6 -5 -5 -5 -5 -4 -4 -4 -4 -3 -3 -3 -3 -2 -2 -2 -2 -1
-3 -3 -4 -3 -4 -4 -4 -5 -5 -5 -5 -5 -5 -4 -5 -5 -5 -6 -6 -6 -6 -6 -6 -6 -6 -6 -6 -6 -6 -5 -5 -5 -5 -5 -4 -4 -4 -3 -3 -3 -3 -2 -2 -2
-4 -4 -3 -3 -5 -5 -5 -6 -6 -6 -5 -5 -5 -5 -5 -5 -6 -6 -6 -7 -7 -7 -7 -7 -6 -7 -6 -6 -6 -6 -6 -6 -6 -5 -5 -4 -4 -4 -4 -4 -3 -3 -3 -3
-4 -4 -4 -4 -6 -5 -5 -6 -5 -5 -6 -6 -6 -7 -7 -6 -6 -6 -7 -7 -7 -7 -7 -7 -7 -7 -7 -7 -6 -6 -6 -6 -6 -6 -5 -5 -5 -5 -4 -4 -4 -4 -4 -3
-5 -5 -5 -6 -6 -6 -6 -5 -5 -5 -6 -6 -7 -7 -6 -7 -7 -7 -7 -8 -8 -8 -8 -8 -7 -7 -7 -7 -7 -7 -7 -7 -6 -6 -6 -6 -5 -5 -5 -5 -5 -4 -4 -4
-5 -5 -5 -6 -7 -7 -6 -5 -5 -6 -6 -6 -7 -7 -7 -7 -8 -8 -8 -8 -8 -8 -8 -8 -8 -8 -8 -7 -7 -7 -7 -7 -7 -6 -6 -6 -6 -6 -6 -6 -5 -5 -5 -5
-6 -5 -5 -5 -5 -5 -5 -6 -6 -6 -7 -7 -7 -8 -8 -8 -8 -8 -8 -8 -9 -9 -9 -8 -8 -8 -8 -8 -8 -8 -7 -7 -7 -7 -7 -7 -7 -6 -6 -6 -6 -6 -6 -6
-6 -6 -5 -5 -5 -5 -6 -6 -7 -7 -7 -7 -8 -8 -8 -8 -9 -9 -9 -9 -9 -9 -9 -9 -8 -8 -8 -8 -8 -8 -8 -8 -8 -8 -7 -7 -7 -7 -7 -7 -7 -7 -7 -6
-7 -7 -5 -5 -5 -6 -6 -7 -7 -7 -8 -8 -8 -9 -9 -9 -9 -9 -9 -9 -9 -10 -9 -9 -9 -9 -8 -8 -8 -8 -8 -8 -8 -8 -8 -8 -8 -8 -8 -8 -8 -7 -7 -7
-6 -6 -6 -6 -6 -6 -7 -7 -7 -8 -8 -8 -9 -9 -9 -9 -9 -10 -10 -10 -10 -10 -10 -9 -9 -9 -9 -9 -9 -9 -9 -9 -9 -9 -9 -9 -9 -8 -8 -8 -8 -8 -8 -7
-5 -5 -6 -6 -6 -7 -7 -7 -8 -8 -8 -9 -9 -9 -10 -10 -10 -10 -10 -10 -10 -10 -10 -10 -10 -9 -9 -9 -10 -9 -9 -9 -9 -9 -9 -9 -9 -9 -9 -8 -8 -8 -8 -8
-6 -6 -7 -7 -7 -7 -7 -8 -8 -8 -9 -9 -9 -10 -10 -10 -10 -10 -10 -10 -10 -10 -10 -10 -10 -10 -10 -10 -10 -10 -10 -10 -10 -10 -10 -10 -10 -10 -10 -10 -9 -9 -8 -8
-7 -7 -7 -7 -7 -8 -8 -8 -9 -9 -9 -9 -10 -10 -10 -10 -10 -10 -10 -11 -11 -10 -10 -10 -10 -10 -10 -10 -10 -10 -10 -10 -10 -10 -10 -10 -10 -10 -10 -10 -10 -9 -9 -9
-7 -7 -8 -8 -8 -8 -9 -9 -9 -9 -10 -10 -10 -10 -10 -11 -11 -11 -11 -11 -11 -11 -11 -11 -11 -11 -11 -10 -10 -11 -10 -10 -11 -11 -11 -11 -11 -11 -10 -10 -10 -10 -10 -10
-8 -8 -8 -9 -9 -9 -9 -9 -10 -10 -10 -10 -10 -11 -11 -11 -11 -11 -11 -11 -11 -11 -11 -11 -11 -11 -11 -11 -11 -11 -11 -11 -11 -11 -11 -11 -11 -11 -11 -11 -11 -11 -10 -10
-8 -8 -8 -9 -9 -9 -9 -10 -10 -10 -10 -11 -11 -11 -11 -11 -11 -11 -11 -11 -11 -11 -11 -11 -11 -11 -11 -11 -11 -11 -11 -11 -11 -11 -11 -11 -11 -11 -11 -11 -11 -11 -11 -10
-8 -8 -9 -9 -9 -10 -10 -10 -10 -10 -11 -11 -11 -11 -11 -11 -12 -12 -12 -12 -12 -12 -12 -12 -12 -12 -11 -12 -12 -12 -11 -11 -12 -12 -12 -12 -12 -12 -12 -11 -11 -11 -11 -11
-9 -9 -9 -9 -10 -10 -10 -10 -10 -11 -11 -11 -11 -11 -12 -12 -12 -12 -12 -12 -12 -12 -12 -12 -12 -12 -12 -12 -12 -12 -12 -12 -12 -12 -12 -12 -12 -12 -12 -12 -12 -11 -11 -11
-9 -9 -10 -10 -10 -10 -10 -11 -11 -11 -11 -11 -12 -12 -12 -12 -12 -12 -13 -12 -12 -13 -13 -12 -12 -12 -12 -12 -12 -12 -12 -12 -12 -12 -12 -12 -12 -12 -12 -12 -12 -12 -12 -12
-9 -10 -10 -10 -10 -10 -11 -11 -11 -11 -11 -12 -12 -12 -12 -12 -13 -13 -13 -13 -13 -13 -13 -13 -13 -13 -13 -13 -13 -13 -13 -13 -13 -13 -13 -13 -13 -13 -13 -13 -13 -12 -12 -12
-10 -10 -10 -10 -10 -11 -11 -11 -11 -12 -12 -12 -12 -12 -13 -13 -13 -13 -13 -13 -13 -13 -13 -13 -13 -13 -13 -13 -13 -13 -13 -13 -13 -13 -13 -13 -13 -13 -13 -13 -13 -13 -13 -13
-10 -10 -10 -11 -11 -11 -11 -11 -12 -12 -12 -12 -12 -13 -13 -13 -13 -13 -14 -14 -14 -14 -14 -13 -13 -13 -13 -13 -13 -13 -13 -13 -13 -13 -13 -13 -13 -13 -13 -13 -13 -13 -13 -13
-10 -11 -11 -11 -11 -11 -12 -12 -12 -12 -12 -13 -13 -13 -13 -13 -14 -14 -14 -14 -14 -14 -14 -14 -14 -14 -14 -14 -14 -14 -14 -14 -14 -14 -14 -14 -14 -14 -14 -14 -14 -14 -13 -13
-11 -11 -11 -11 -12 -12 -12 -12 -13 -13 -13 -13 -13 -13 -14 -14 -14 -14 -14 -14 -14 -14 -14 -14 -14 -14 -14 -14 -14 -14 -14 -14 -14 -14 -14 -14 -14 -14 -14 -14 -14 -14 -14 -13
-11 -11 -12 -12 -12 -12 -13 -13 -13 -13 -13 -14 -14 -14 -14 -14 -14 -14 -14 -14 -14 -15 -15 -14 -14 -14 -14 -14 -14 -14 -14 -14 -14 -14 -14 -14 -14 -14 -14 -14 -14 -14 -14 -14
Wind_Speed
6 5 4 5 5 3 4 5 5 5 5 6 4 4 5 5 5 6 6 7 7 7 7 7 7 7 7 7 7 7 6 6 6 6 5 5 5 4 4 4 4 3 3 3
5 5 4 7 8 7 7 7 8 8 8 4 3 3 4 5 6 6 6 7 8 8 8 8 7 7 8 8 8 7 6 7 7 6 5 5 5 4 4 4 4 3 4 4
4 2 4 6 6 6 4 4 4 6 6 4 5 5 5 6 5 6 7 7 8 8 8 7 7 7 7 7 7 7 7 6 7 6 6 5 5 5 4 4 4 3 4 4
3 4 5 5 1 1 2 3 4 4 4 3 4 5 5 4 4 5 7 8 8 8 8 7 6 7 7 7 7 6 7 7 7 6 6 6 6 5 5 4 4 3 4 4
2 3 6 2 0 1 2 4 4 5 5 4 4 5 4 3 4 5 6 7 6 6 7 7 7 7 6 7 6 6 6 6 7 6 6 6 6 6 5 5 4 4 4 4
2 3 5 3 0 1 1 4 2 1 3 4 4 3 4 5 5 6 7 6 6 6 6 6 7 6 6 6 6 7 7 7 7 7 6 6 6 6 6 5 5 5 5 4
5 5 6 1 1 2 1 5 2 1 2 2 3 4 5 6 6 6 6 6 6 6 6 6 7 6 6 7 7 7 7 7 7 7 6 6 6 5 5 5 5 4 5 4
3 4 6 3 4 4 4 2 2 2 3 3 5 5 6 6 6 7 7 7 6 6 6 6 6 6 7 7 7 7 6 7 7 7 6 6 5 5 5 5 5 4 4 5
5 6 2 5 4 2 0 2 2 3 4 4 5 6 6 6 6 6 6 7 6 6 7 7 6 6 7 8 8 7 7 7 7 7 6 6 5 5 5 4 4 4 4 5
4 6 3 4 3 1 1 2 3 4 4 4 5 6 7 7 6 6 6 7 6 7 7 8 8 7 7 8 7 7 8 8 7 7 6 5 5 5 4 4 4 4 5 5
6 5 5 2 2 2 2 2 3 4 4 4 5 6 6 6 6 6 7 6 6 7 7 8 8 8 8 8 7 7 7 7 7 6 6 6 5 5 5 4 5 6 5 5
5 3 3 4 2 2 2 4 4 4 5 4 4 6 6 6 5 6 6 6 6 7 8 8 8 9 8 8 7 7 7 7 6 5 5 5 5 6 8 8 10 10 10 9
3 1 2 4 2 1 2 3 3 4 4 5 5 4 5 6 6 6 6 6 7 7 8 8 8 9 9 8 7 7 7 7 6 5 5 6 5 6 7 8 10 10 10 11
2 1 3 2 2 2 3 3 3 4 4 4 4 4 5 5 6 6 6 6 7 7 7 7 8 8 8 7 7 7 7 7 7 5 5 5 5 6 5 6 7 6 8 10
2 3 4 4 3 3 2 2 3 4 4 4 4 4 5 6 6 7 7 7 7 7 7 7 7 8 8 7 8 8 7 5 5 5 5 5 5 5 5 6 6 6 5 7
2 3 3 3 4 3 3 3 4 4 4 4 4 5 5 6 6 7 6 5 6 7 7 7 8 8 8 7 8 6 6 9 8 5 5 5 5 5 5 5 5 5 5 5
2 3 3 4 4 4 4 4 4 4 4 4 5 5 5 6 6 6 6 6 6 7 7 7 8 8 7 7 7 6 5 7 9 7 5 5 5 5 5 5 5 5 5 7
4 4 4 4 4 5 5 4 4 4 4 4 4 5 5 6 6 7 7 7 7 7 7 7 7 7 6 7 6 5 5 5 5 5 5 5 5 5 5 5 5 6 6 7
2 3 3 4 4 4 4 4 4 4 4 4 4 5 5 6 6 6 6 6 7 7 7 6 10 8 7 7 8 5 5 6 6 6 5 7 7 5 5 5 6 6 6 6
2 3 3 3 3 3 4 4 4 4 4 4 4 5 6 6 6 6 6 6 5 5 6 7 7 7 6 7 8 4 5 6 6 6 5 5 5 5 6 6 6 6 6 6
3 3 3 3 4 3 3 3 3 4 4 4 4 5 6 6 6 5 5 6 6 5 6 9 6 5 6 7 8 5 5 5 6 5 6 6 6 6 6 6 6 7 6 6
3 2 3 3 3 4 4 3 3 4 4 4 5 5 5 6 5 5 5 5 5 8 6 5 5 8 9 9 5 5 5 5 5 5 5 5 6 6 6 6 6 6 6 6
2 3 3 3 3 4 4 3 3 4 4 5 5 5 5 5 4 5 6 5 4 8 6 5 8 12 12 7 4 4 5 5 5 5 5 5 5 6 6 7 6 6 6 6
2 3 3 3 2 3 4 4 3 3 4 4 5 4 4 4 4 4 4 7 9 9 6 8 12 12 11 5 4 4 5 5 5 5 5 5 5 5 6 6 6 6 6 6
2 3 2 2 2 3 4 4 3 3 3 3 4 4 3 3 4 4 4 5 9 9 6 8 12 12 7 5 5 5 5 5 6 5 5 5 5 6 6 6 6 6 6 6
2 2 2 3 2 2 2 2 3 3 3 4 4 4 4 3 4 4 4 5 6 9 7 5 6 8 5 5 5 6 5 6 7 6 6 6 6 6 6 6 7 6 6 6
2 2 2 2 2 2 2 2 3 4 4 4 5 5 4 4 4 4 4 4 5 5 5 5 5 5 5 5 6 6 6 6 6 6 6 6 6 6 7 7 7 7 7 7
Wind_Direction
271 281 292 292 288 264 221 235 244 265 277 291 317 328 325 326 330 335 337 339 342 338 331 330 332 332 333 331 331 331 330 329 325 320 322 319 315 308 303 299 296 283 276 276
282 252 270 286 279 266 256 250 252 272 279 286 312 344 336 329 326 324 329 333 334 332 330 329 328 327 327 328 328 328 326 327 326 322 322 318 317 316 311 306 302 297 287 286
288 330 319 281 257 236 231 232 229 250 264 317 336 327 315 309 315 324 332 333 330 328 325 324 324 323 321 321 324 325 325 327 326 325 321 315 313 314 309 303 304 305 299 286
291 331 267 248 92 122 208 254 248 259 288 306 303 306 301 305 330 334 332 329 325 324 324 323 324 323 321 322 322 322 323 325 325 323 320 318 316 312 307 300 299 294 290 283
275 279 273 259 179 138 207 276 255 254 276 299 324 319 303 350 1 333 322 319 316 316 319 324 326 325 324 319 317 319 320 324 323 320 318 317 316 314 308 305 300 292 288 286
251 259 263 269 61 36 91 284 291 250 280 308 342 313 295 337 337 328 327 327 327 327 329 329 327 327 323 320 323 320 319 321 319 315 313 312 310 309 308 307 299 301 298 293
240 250 265 256 137 102 155 271 324 323 292 293 267 255 292 323 330 328 325 326 329 331 329 324 326 327 321 319 317 314 318 318 315 314 313 308 309 311 312 308 305 302 298 294
210 232 259 145 137 188 235 309 330 326 312 297 288 299 312 320 321 325 328 331 333 330 326 325 327 327 321 316 316 318 315 313 312 313 312 312 312 312 313 311 305 302 301 300
208 222 237 168 195 220 5 302 303 312 313 308 299 300 307 312 317 322 326 329 331 328 325 326 329 330 321 318 321 320 318 316 314 314 313 314 312 310 312 309 304 302 300 297
264 265 264 218 223 263 279 281 296 302 302 301 294 299 305 310 315 321 325 326 328 327 325 325 329 329 322 321 323 321 319 317 317 317 316 317 313 308 306 303 298 295 292 291
257 279 300 272 238 247 273 285 298 307 301 294 295 300 303 305 310 314 316 320 322 321 318 318 323 324 324 324 324 319 314 314 317 318 317 315 314 309 303 295 292 294 291 289
237 236 238 276 288 263 267 275 280 290 297 296 290 291 300 301 303 306 309 314 317 316 316 316 319 319 321 323 322 317 314 315 315 316 316 315 314 315 313 306 307 303 300 297
240 302 266 276 290 275 266 279 285 282 284 291 290 284 289 294 301 305 305 308 309 308 309 311 313 315 317 319 318 313 309 311 314 318 317 316 316 314 315 320 317 312 308 305
235 257 277 270 278 293 287 282 280 280 281 280 284 291 294 295 302 304 304 304 304 306 306 308 310 312 317 320 319 315 311 309 311 311 312 313 312 311 310 313 317 319 317 313
244 230 245 271 287 290 289 294 294 290 290 292 296 299 301 301 300 300 302 306 309 308 309 312 313 315 320 321 319 317 314 311 310 309 310 311 312 312 311 311 310 312 317 320
281 274 259 261 269 278 283 285 282 287 293 295 297 299 300 297 295 297 302 309 312 309 311 311 311 314 321 323 321 320 319 317 319 317 315 314 315 315 315 313 312 314 316 316
245 265 265 276 281 284 277 274 274 280 286 289 293 300 303 304 303 304 309 313 305 299 303 308 309 313 319 320 319 318 318 320 320 318 315 313 314 314 314 313 313 313 312 312
225 244 257 262 267 276 281 285 285 287 286 287 296 300 300 300 300 302 307 312 311 308 310 314 314 318 318 317 318 317 318 318 318 314 314 315 314 313 313 312 311 311 313 314
257 263 269 271 272 270 275 280 286 287 291 294 293 291 291 291 294 300 306 311 310 310 318 324 327 331 322 319 324 317 317 317 316 316 316 315 317 318 317 315 315 314 314 315
284 287 285 286 286 280 280 282 285 286 286 286 289 291 293 296 299 301 302 297 291 294 309 320 322 320 319 321 324 315 314 313 312 314 315 315 315 317 318 317 318 316 316 316
290 294 294 292 291 289 282 279 280 284 287 283 280 283 287 294 298 297 299 300 305 311 319 321 325 319 319 322 321 317 313 312 313 314 315 316 316 316 317 318 318 318 316 315
289 289 292 295 297 298 294 288 281 282 288 287 283 285 290 296 299 296 286 283 301 318 324 317 315 317 323 323 320 316 314 314 315 316 316 316 317 317 317 318 317 317 318 319
289 288 289 291 290 293 298 293 283 278 278 282 285 285 284 286 290 295 301 305 309 315 320 312 315 319 322 326 321 314 313 313 312 313 312 312 312 312 312 315 316 316 317 318
295 293 290 292 298 298 299 299 294 289 282 283 284 281 283 292 294 285 288 309 319 317 315 314 319 321 324 328 318 314 311 310 309 308 307 308 308 309 310 311 312 314 314 314
296 291 294 298 294 292 296 307 310 305 301 299 301 303 293 279 284 300 305 309 315 318 316 318 322 325 328 321 317 313 311 306 306 307 306 309 309 308 309 309 309 310 310 311
297 291 284 278 279 290 303 309 306 306 311 313 313 312 308 301 293 297 303 306 308 314 317 314 317 319 321 318 314 314 312 312 313 313 310 307 306 307 307 309 308 309 308 307
310 309 308 310 310 311 305 300 298 301 305 304 307 309 310 310 308 308 309 310 311 311 310 311 313 313 313 313 312 312 311 309 308 307 307 305 304 304 306 307 307 307 306 306
Height
1533 1530 1530 1530 1529 1528 1530 1530 1529 1523 1522 1520 1519 1518 1517 1515 1513 1511 1509 1507 1505 1502 1500 1497 1494 1491 1489 1486 1484 1482 1480 1478 1476 1475 1474 1473 1473 1472 1472 1472 1472 1472 1473 1473
1533 1528 1528 1528 1526 1525 1525 1525 1525 1523 1522 1518 1518 1517 1516 1514 1512 1510 1508 1506 1503 1501 1498 1495 1492 1489 1487 1484 1482 1480 1477 1475 1474 1472 1471 1471 1470 1469 1469 1468 1468 1468 1468 1469
1533 1528 1528 1528 1524 1523 1523 1522 1522 1523 1520 1517 1516 1515 1514 1512 1511 1509 1506 1504 1501 1499 1496 1493 1490 1488 1485 1482 1480 1477 1475 1473 1472 1470 1469 1467 1467 1466 1465 1464 1464 1463 1464 1464
1534 1532 1537 1524 1519 1519 1520 1521 1520 1518 1517 1516 1515 1514 1512 1511 1509 1507 1505 1502 1499 1496 1494 1491 1488 1485 1483 1480 1477 1475 1473 1470 1469 1468 1466 1464 1463 1462 1462 1461 1460 1460 1460 1460
1536 1535 1526 1521 1520 1521 1522 1521 1517 1516 1515 1515 1514 1512 1510 1508 1507 1505 1503 1500 1497 1494 1491 1488 1486 1483 1480 1477 1475 1472 1470 1468 1467 1465 1463 1461 1460 1459 1458 1457 1456 1456 1456 1456
1536 1536 1532 1522 1521 1518 1521 1522 1514 1514 1513 1513 1512 1513 1510 1507 1505 1503 1500 1498 1495 1491 1488 1486 1483 1481 1478 1475 1472 1470 1468 1466 1464 1462 1460 1458 1457 1456 1455 1454 1453 1452 1452 1452
1538 1535 1527 1521 1519 1519 1525 1520 1514 1513 1513 1513 1512 1512 1509 1505 1503 1500 1498 1495 1492 1489 1486 1483 1481 1478 1475 1473 1470 1468 1466 1463 1461 1460 1458 1456 1454 1453 1452 1451 1450 1449 1448 1448
1534 1534 1528 1520 1519 1521 1518 1514 1513 1512 1512 1511 1509 1507 1505 1503 1500 1498 1495 1492 1489 1486 1483 1481 1478 1476 1473 1471 1469 1466 1464 1461 1459 1457 1455 1453 1451 1450 1448 1447 1446 1445 1444 1444
1526 1523 1516 1515 1514 1514 1513 1512 1511 1510 1509 1508 1506 1504 1502 1500 1497 1495 1493 1490 1487 1484 1481 1478 1476 1474 1471 1468 1466 1463 1460 1458 1455 1453 1452 1450 1448 1446 1445 1444 1443 1441 1441 1440
1520 1514 1512 1512 1512 1511 1511 1510 1509 1508 1507 1505 1503 1501 1499 1497 1495 1492 1490 1487 1485 1482 1479 1476 1474 1471 1469 1466 1463 1460 1457 1454 1452 1450 1448 1447 1445 1444 1442 1441 1440 1439 1438 1437
1517 1512 1510 1508 1509 1508 1508 1507 1506 1505 1504 1502 1501 1498 1496 1494 1492 1490 1487 1485 1482 1480 1477 1474 1471 1468 1466 1463 1460 1457 1455 1452 1450 1448 1445 1443 1442 1441 1439 1438 1437 1436 1435 1434
1512 1509 1509 1507 1506 1505 1505 1504 1503 1502 1500 1499 1498 1495 1493 1491 1489 1487 1485 1482 1480 1477 1474 1471 1468 1466 1463 1460 1458 1455 1452 1449 1447 1445 1443 1441 1439 1437 1436 1435 1434 1432 1431 1430
1506 1506 1505 1504 1503 1503 1502 1501 1500 1499 1498 1496 1494 1493 1490 1488 1486 1484 1482 1480 1477 1474 1472 1469 1466 1463 1460 1458 1455 1452 1450 1447 1445 1443 1440 1438 1436 1434 1432 1430 1430 1428 1427 1425
1503 1503 1502 1501 1501 1500 1499 1498 1497 1496 1494 1493 1491 1490 1488 1486 1484 1481 1479 1477 1474 1472 1469 1466 1463 1461 1458 1455 1452 1449 1447 1444 1442 1440 1438 1436 1434 1432 1430 1427 1425 1423 1422 1421
1500 1500 1500 1498 1498 1497 1496 1495 1494 1492 1491 1490 1488 1487 1485 1483 1480 1478 1476 1474 1472 1469 1466 1464 1461 1458 1456 1453 1450 1447 1444 1442 1439 1437 1435 1433 1431 1429 1427 1424 1422 1420 1418 1417
1497 1497 1496 1495 1495 1494 1493 1492 1491 1489 1488 1486 1485 1483 1482 1480 1478 1476 1474 1471 1469 1466 1463 1461 1458 1456 1453 1450 1447 1445 1442 1440 1437 1435 1433 1431 1429 1426 1424 1422 1419 1417 1416 1414
1494 1493 1492 1492 1491 1491 1490 1489 1488 1486 1485 1483 1482 1480 1478 1476 1475 1473 1471 1469 1466 1464 1461 1459 1456 1453 1451 1448 1445 1443 1440 1438 1435 1433 1431 1429 1427 1424 1422 1420 1418 1416 1414 1413
1491 1491 1490 1489 1488 1487 1486 1486 1485 1483 1482 1480 1479 1477 1475 1473 1471 1469 1468 1466 1463 1461 1459 1456 1454 1451 1449 1446 1444 1441 1438 1436 1433 1431 1429 1427 1425 1423 1420 1418 1416 1414 1412 1410
1488 1488 1487 1486 1485 1484 1483 1482 1481 1480 1478 1477 1475 1474 1472 1471 1469 1467 1465 1463 1460 1458 1456 1454 1452 1449 1447 1444 1442 1439 1437 1434 1432 1430 1428 1425 1423 1421 1419 1416 1414 1412 1410 1408
1486 1485 1484 1483 1483 1482 1480 1479 1478 1477 1475 1474 1472 1471 1469 1468 1466 1464 1462 1460 1458 1456 1454 1452 1449 1447 1445 1442 1440 1438 1435 1433 1430 1428 1426 1424 1421 1419 1417 1415 1412 1410 1408 1406
1483 1482 1481 1481 1480 1479 1478 1476 1475 1473 1472 1471 1469 1468 1466 1465 1463 1461 1459 1457 1456 1454 1451 1449 1447 1445 1443 1441 1439 1436 1434 1432 1429 1427 1424 1422 1420 1418 1415 1413 1411 1408 1406 1404
1480 1480 1479 1478 1477 1476 1475 1474 1472 1471 1469 1468 1466 1465 1463 1461 1460 1458 1456 1455 1453 1451 1449 1447 1445 1443 1441 1439 1436 1434 1432 1430 1427 1425 1423 1420 1418 1416 1413 1411 1409 1406 1404 1402
1478 1477 1476 1475 1474 1473 1472 1471 1470 1468 1466 1465 1463 1462 1460 1459 1457 1455 1453 1452 1450 1448 1446 1444 1442 1440 1438 1436 1434 1432 1429 1427 1425 1423 1421 1418 1416 1414 1411 1409 1407 1404 1402 1399
1476 1475 1474 1473 1472 1470 1469 1468 1467 1465 1464 1463 1461 1459 1458 1456 1454 1453 1451 1449 1447 1445 1443 1441 1439 1437 1435 1433 1431 1429 1427 1425 1423 1421 1418 1416 1414 1411 1409 1407 1404 1402 1400 1397
1474 1473 1471 1470 1469 1468 1467 1465 1464 1463 1461 1460 1458 1457 1455 1453 1451 1450 1448 1446 1444 1442 1440 1438 1436 1434 1432 1430 1428 1426 1424 1422 1420 1418 1416 1414 1411 1409 1407 1404 1402 1400 1397 1395
1471 1470 1469 1468 1467 1466 1464 1463 1461 1460 1458 1457 1455 1454 1452 1450 1449 1447 1445 1443 1441 1439 1437 1435 1433 1431 1429 1427 1425 1423 1421 1419 1417 1415 1413 1411 1409 1406 1404 1402 1399 1397 1395 1393
1469 1468 1467 1466 1465 1463 1462 1461 1459 1458 1456 1454 1452 1451 1449 1448 1446 1444 1441 1439 1437 1436 1434 1432 1430 1428 1426 1424 1422 1420 1418 1416 1414 1412 1410 1408 1406 1404 1401 1399 1397 1394 1392 1390